EW7030 Weather Reports


Display with metric or nautical units.
time (UTC)temp
F
wind
direction
speed
MPH
gust
MPH
rain 1hr
in
rain 24hr
in
rain mn
in
humidity
%
barometer
mb
20260507090045 35 350 0.0 0.0 0.00 0.35 0.00 63 1011.3
20260507084540 35 350 0.0 0.0 0.00 0.35 0.00 66 1011.2
20260507083038 35 350 0.0 0.0 0.00 0.35 0.00 69 1011.3
20260507081533 36 350 0.0 0.0 0.00 0.35 0.00 75 1011.2
20260507080031 36 350 0.0 0.0 0.00 0.35 0.00 74 1011.3
20260507074540 36 350 0.0 0.0 0.00 0.42 0.00 77 1011.2
20260507073028 37 350 0.0 0.0 0.00 0.42 0.00 78 1011.0
20260507071525 37 350 0.0 0.0 0.00 0.42 0.00 79 1011.0
20260507070022 38 350 0.0 0.0 0.00 0.42 0.00 79 1011.1
20260507064520 39 350 0.0 0.0 0.00 0.48 0.00 78 1011.1
20260507063017 40 350 0.0 0.0 0.00 0.48 0.00 77 1011.0
20260507061513 41 350 0.0 0.0 0.00 0.48 0.00 74 1011.1
20260507060011 42 350 0.0 0.0 0.00 0.48 0.00 72 1011.2
20260507054507 42 359 0.0 0.0 0.00 0.48 0.00 71 1011.4
20260507053006 42 27 0.0 0.0 0.00 0.48 0.00 71 1011.6
20260507051504 43 347 0.0 0.0 0.00 0.48 0.00 71 1011.6
20260507050003 43 340 0.0 1.0 0.00 0.48 0.00 71 1011.5
20260507044602 43 311 0.0 0.0 0.00 0.48 0.00 70 1011.4
20260507043101 43 3 0.0 1.0 0.00 0.48 0.00 71 1011.3
20260507041601 43 291 0.0 0.0 0.00 0.48 0.00 70 1011.4
20260507040059 43 319 0.0 0.0 0.00 0.48 0.00 69 1011.3
20260507034558 43 309 0.0 0.0 0.00 0.48 0.48 69 1011.2
20260507033048 43 302 0.0 0.0 0.00 0.48 0.48 69 1011.2
20260507031542 44 358 0.0 0.0 0.00 0.48 0.48 69 1011.0
20260507030039 44 323 0.0 0.0 0.00 0.48 0.48 70 1010.9
20260507024548 44 349 0.0 0.0 0.00 0.48 0.48 69 1010.8
20260507023029 44 311 0.0 0.0 0.00 0.48 0.48 69 1010.6
20260507021525 45 354 0.0 0.0 0.00 0.48 0.48 69 1010.5
20260507020021 45 337 0.0 0.0 0.00 0.48 0.48 69 1010.3
20260507014532 45 336 0.0 0.0 0.00 0.48 0.48 71 1010.7
20260507013012 45 333 0.0 1.0 0.00 0.48 0.48 69 1011.1
20260507011512 46 297 0.0 0.0 0.00 0.48 0.48 70 1011.0
20260507010003 46 4 0.0 1.0 0.00 0.48 0.48 69 1010.7
20260507004558 47 359 0.0 0.0 0.00 0.48 0.48 69 1010.9
20260507003055 47 342 0.0 0.0 0.00 0.48 0.48 68 1010.4
20260507001556 47 340 0.0 1.0 0.00 0.48 0.48 67 1010.4
20260507000045 48 296 0.0 1.0 0.00 0.48 0.48 68 1009.9
20260506234541 49 290 0.0 4.0 0.00 0.48 0.48 75 1009.7
20260506233038 49 299 0.0 0.0 0.00 0.48 0.48 77 1009.3
20260506231535 50 162 0.0 0.0 0.00 0.48 0.48 76 1009.0
20260506230028 50 340 0.0 0.0 0.00 0.48 0.48 76 1008.9
20260506224523 50 316 0.0 1.0 0.00 0.48 0.48 76 1008.9
20260506223019 50 319 0.0 0.0 0.00 0.48 0.48 77 1008.6
20260506221518 50 287 0.0 1.0 0.00 0.48 0.48 76 1008.6
20260506220014 50 342 0.0 1.0 0.00 0.48 0.48 76 1008.7
20260506214516 50 250 0.0 0.0 0.00 0.48 0.48 76 1008.4
20260506213005 50 320 0.0 1.0 0.00 0.48 0.48 76 1007.9
20260506211503 50 300 0.0 1.0 0.00 0.48 0.48 76 1007.9
20260506210056 51 243 0.0 3.0 0.00 0.48 0.48 74 1007.6
20260506204554 50 276 0.0 1.0 0.00 0.48 0.48 74 1007.4
20260506203047 50 289 0.0 0.0 0.00 0.48 0.48 74 1007.5
20260506201543 50 293 0.0 1.0 0.00 0.48 0.48 72 1007.7
20260506200038 50 342 0.0 1.0 0.00 0.48 0.48 71 1007.4
20260506194537 51 238 0.0 1.0 0.00 0.48 0.48 74 1007.1
20260506193033 52 294 0.0 0.0 0.00 0.48 0.48 71 1006.9
20260506191525 52 309 0.0 1.0 0.00 0.48 0.48 68 1006.7
20260506190020 52 321 0.0 0.0 0.00 0.48 0.48 61 1006.5
20260506184523 52 356 0.0 1.0 0.00 0.48 0.48 53 1006.5
20260506183013 51 326 0.0 1.0 0.00 0.48 0.48 41 1006.6
20260506181508 51 326 0.0 1.0 0.00 0.48 0.48 16 1006.7
20260506180006 51 241 0.0 1.0 0.00 0.48 0.48 1 1006.5
20260506174607 52 214 0.0 1.0 0.00 0.48 0.48 1 1006.5